Wind_Speed
12 12 13 14 14 14 14 14 14 13 13 12 12 11 11 10 10 9 9 8 6 5 4 3 2 2 3 3 3 4 5 6 6 7 7 7 8 8 8 8 8 9 9
10 11 12 12 13 13 14 14 14 14 13 12 12 12 12 11 11 10 10 9 8 6 5 4 4 2 2 3 4 5 5 6 7 8 8 8 9 9 9 9 9 10 10
10 10 10 11 11 12 12 13 13 13 13 13 12 12 12 11 11 11 10 9 8 7 6 5 5 4 3 3 3 4 5 6 7 8 9 9 10 9 9 10 10 10 12
9 9 10 9 10 10 11 11 12 13 12 12 12 12 12 12 12 12 11 9 9 8 7 7 6 6 5 5 5 6 6 7 8 8 9 9 9 9 9 10 11 12 13
9 9 9 9 9 9 10 10 11 12 12 11 11 11 11 11 11 11 11 10 9 10 8 7 6 6 6 6 6 7 7 7 7 8 8 9 9 10 10 11 12 13 14
10 9 9 9 9 9 9 9 10 10 11 11 11 11 11 11 11 11 11 10 10 10 9 9 8 7 7 7 7 8 8 8 8 8 9 10 10 10 10 11 12 14 15
12 10 10 10 10 10 10 9 10 10 10 11 10 10 11 11 11 11 11 11 10 10 11 10 9 8 8 8 9 9 8 9 9 9 9 10 11 11 12 12 13 14 15
15 13 12 11 11 11 11 11 11 10 10 10 10 10 10 11 11 11 11 10 11 11 11 10 10 10 10 10 10 10 10 10 10 10 11 11 11 12 13 13 14 14 16
16 16 14 14 13 12 12 12 11 11 11 10 10 10 10 11 11 11 11 11 12 12 11 11 10 10 11 11 11 10 10 10 11 11 12 12 13 13 14 15 15 16 17
19 18 16 15 15 14 14 13 12 12 12 11 11 11 11 12 12 13 13 13 13 13 13 12 12 11 12 12 12 12 12 12 12 13 14 14 14 14 15 16 17 17 17
20 20 18 17 17 16 15 15 14 14 13 13 13 13 13 13 13 14 14 14 15 15 14 14 13 13 14 14 14 14 14 14 14 14 15 16 16 16 16 16 17 18 18
21 21 20 20 20 19 19 18 17 16 15 15 15 15 15 15 15 15 16 16 16 16 16 16 16 16 16 16 16 16 15 15 15 16 16 16 17 18 18 18 19 19 19
22 22 22 21 21 21 21 21 20 18 18 17 17 17 17 17 17 17 18 18 18 18 18 18 17 17 17 17 18 17 17 17 18 18 18 18 18 19 20 20 20 21 21
25 25 24 24 24 24 23 23 23 22 21 20 19 20 20 20 20 20 20 20 20 20 20 20 20 20 19 19 19 19 19 19 20 20 20 20 20 20 20 21 22 22 22
28 28 28 27 26 26 26 26 25 25 24 23 22 22 23 23 23 22 22 22 22 22 23 23 22 21 20 21 21 21 21 21 21 22 21 21 22 22 22 22 23 23 23
32 30 30 30 29 29 28 29 28 28 28 27 26 25 25 25 25 25 25 24 24 25 24 24 23 23 23 23 23 23 23 24 24 24 23 23 23 23 23 23 24 24 24
33 32 32 32 31 31 31 31 31 31 30 29 29 28 28 27 28 27 27 27 26 26 26 25 26 26 26 25 25 25 25 25 25 25 25 25 25 26 26 25 26 26 26
34 34 33 33 33 33 33 32 33 33 32 32 32 31 30 30 30 29 29 29 29 28 27 27 28 27 28 28 27 27 27 27 28 28 28 27 28 28 28 27 27 28 28
36 35 35 35 35 35 35 35 35 35 35 35 34 34 33 33 32 32 31 31 31 30 29 29 29 29 30 30 30 29 30 30 30 31 30 30 30 30 30 30 30 30 30
36 36 37 37 38 38 38 38 38 38 37 37 37 37 37 36 36 35 34 34 34 33 32 31 31 32 32 32 32 32 32 31 32 32 31 32 32 32 32 32 32 32 32
37 38 38 39 40 40 41 42 42 41 40 40 41 40 40 39 39 38 37 38 37 36 35 34 33 34 34 34 34 33 33 33 32 32 32 32 33 34 34 33 32 32 32
39 40 40 41 42 43 44 44 43 43 43 43 43 43 42 42 41 41 40 39 38 38 37 37 36 35 35 35 35 34 33 33 33 33 33 34 35 35 34 34 33 33 34
41 42 42 42 43 44 44 45 45 45 45 45 45 44 44 43 43 42 41 41 40 39 38 38 37 36 35 34 34 34 34 33 34 34 34 35 36 36 35 34 35 35 35
43 43 43 43 43 44 45 45 46 46 47 46 45 45 45 44 44 44 43 42 41 40 39 39 38 37 36 37 36 36 36 35 36 36 37 37 37 37 36 35 35 35 35
42 43 43 44 44 44 44 45 46 46 46 46 45 44 44 44 44 44 43 43 42 42 41 42 41 39 37 37 37 37 38 38 38 39 39 38 38 37 37 37 37 37 37
42 43 44 45 45 44 44 44 45 46 45 45 45 44 43 44 44 45 43 42 42 42 42 42 42 41 40 39 40 40 40 40 40 40 40 39 39 39 38 38 38 38 38
Wind_Direction
18 21 26 28 29 32 32 32 33 34 34 35 36 36 34 33 32 30 34 36 36 39 35 15 336 268 252 268 281 275 271 272 275 274 275 274 277 282 281 285 287 285 283
8 12 15 21 24 27 28 28 28 31 31 31 33 33 32 31 29 31 32 33 33 35 30 16 3 344 288 280 282 281 279 283 282 278 275 274 276 277 279 281 282 286 288
355 3 4 11 17 18 20 21 22 26 28 27 28 28 28 28 25 22 24 28 27 26 20 13 7 360 346 327 308 300 290 286 288 288 283 279 280 284 283 285 287 289 289
333 349 353 359 5 8 12 16 18 20 21 21 22 24 25 25 23 20 20 21 18 15 11 7 357 349 337 332 331 322 312 303 294 291 289 287 287 289 288 286 287 290 292
319 330 340 345 349 354 0 6 9 12 12 13 15 16 17 18 17 17 16 15 13 10 5 2 356 349 339 333 332 330 326 321 312 301 296 291 289 289 288 288 289 290 292
302 315 325 332 335 338 343 350 355 359 1 4 7 8 9 8 9 11 12 12 11 8 4 360 356 350 339 331 327 324 325 326 321 314 305 299 298 297 293 293 292 292 291
287 297 302 310 319 325 328 332 340 344 347 351 354 358 360 359 359 1 4 6 3 0 359 356 353 348 341 335 330 327 323 324 322 319 315 307 303 301 300 298 298 298 297
280 286 290 296 304 311 314 319 324 329 333 337 342 345 348 351 350 350 354 358 357 355 353 349 348 349 344 338 332 329 321 319 321 319 315 311 310 309 306 303 303 302 302
274 277 278 285 292 297 301 305 310 315 320 323 327 332 334 340 343 342 343 345 346 347 345 342 341 342 342 337 332 328 322 318 319 319 317 311 307 306 306 306 305 303 303
271 273 274 276 282 285 290 296 300 304 305 309 312 316 322 325 328 333 332 331 331 334 335 333 332 332 331 331 328 322 318 315 313 312 315 314 312 310 308 307 305 304 303
263 266 265 270 275 280 284 288 290 294 295 298 301 304 309 314 318 322 324 325 324 324 324 324 322 320 321 322 320 319 315 313 312 310 310 311 310 309 310 310 308 307 305
261 263 263 266 268 272 276 281 283 284 288 291 293 294 298 303 307 312 316 318 318 316 315 316 315 312 312 313 316 314 313 311 312 311 309 310 310 308 306 306 307 306 304
260 260 262 264 267 271 274 278 278 278 282 285 286 287 290 294 298 302 306 309 310 310 309 310 310 308 308 310 312 311 309 310 310 308 309 309 309 309 307 305 305 305 304
260 259 259 263 266 270 273 275 277 279 281 283 282 283 285 288 290 294 298 301 302 303 303 304 307 306 305 305 307 306 306 307 310 308 306 305 305 304 306 306 306 305 304
260 258 258 260 264 268 271 274 277 279 279 280 282 281 283 286 289 291 295 298 300 301 301 301 303 303 303 303 303 302 302 303 304 305 304 304 303 301 302 303 306 305 304
259 258 258 259 261 265 269 271 273 275 278 280 282 281 282 285 286 289 292 293 297 298 300 301 302 301 300 298 298 298 298 298 299 300 301 303 304 302 300 301 302 304 304
260 258 259 260 261 262 265 267 270 272 274 277 280 281 282 282 283 286 287 289 293 297 299 298 298 298 298 295 294 295 298 297 296 297 298 300 303 301 299 299 300 301 303
261 260 259 259 260 261 262 265 267 270 271 273 276 278 280 280 281 283 283 287 290 292 292 292 294 296 297 296 292 294 296 295 294 295 296 298 299 300 299 298 298 299 299
260 260 259 259 260 260 261 263 266 268 270 272 274 275 277 278 279 279 281 284 285 287 288 290 291 291 292 292 292 292 294 292 292 293 293 295 296 296 296 296 297 297 297
262 261 260 260 260 260 261 263 264 265 267 269 271 272 274 275 277 277 277 279 281 282 283 285 287 287 287 287 288 289 292 291 291 291 292 295 295 295 295 295 295 296 295
261 261 261 261 261 261 262 262 263 265 266 267 269 271 272 273 275 275 275 277 279 281 280 282 284 284 285 286 286 287 289 290 289 289 290 292 294 294 294 294 294 295 295
263 262 263 263 263 263 264 264 263 264 266 266 267 270 271 273 275 276 276 278 278 280 281 282 282 284 285 285 286 287 287 288 287 288 289 291 292 293 292 292 292 293 293
263 264 264 264 264 264 264 264 265 265 266 267 267 268 270 272 274 275 275 275 275 276 279 281 281 283 283 286 287 287 286 286 286 287 288 291 292 292 292 292 291 292 292
264 264 265 265 265 265 265 265 265 265 266 267 267 268 269 270 271 274 275 275 276 277 280 283 281 279 280 283 285 285 285 285 285 285 287 289 290 291 291 292 292 292 291
264 265 265 266 266 266 266 266 266 266 266 266 266 267 268 269 270 272 273 274 275 277 278 280 281 280 280 281 282 282 283 283 283 284 285 287 288 288 289 290 290 290 290
265 265 265 266 266 267 267 266 265 265 265 265 266 266 268 269 271 273 274 274 275 276 277 281 280 279 279 280 281 280 280 281 281 282 283 284 286 286 286 287 288 289 289
Height
5914 5913 5911 5909 5908 5906 5905 5903 5901 5899 5898 5896 5895 5893 5892 5891 5889 5888 5887 5886 5885 5885 5885 5884 5884 5885 5886 5886 5886 5887 5887 5887 5887 5888 5888 5888 5888 5887 5888 5888 5888 5888 5888
5915 5914 5912 5911 5909 5908 5906 5904 5903 5901 5899 5898 5896 5895 5893 5892 5891 5889 5888 5887 5886 5885 5885 5884 5884 5884 5885 5885 5885 5885 5886 5886 5886 5886 5886 5886 5887 5886 5886 5886 5885 5885 5885
5916 5914 5913 5912 5911 5909 5907 5906 5904 5902 5901 5899 5898 5896 5894 5893 5892 5890 5888 5887 5886 5886 5885 5885 5884 5884 5884 5884 5884 5884 5884 5884 5884 5883 5884 5884 5884 5883 5884 5883 5883 5882 5883
5915 5914 5913 5912 5911 5910 5908 5907 5905 5903 5902 5900 5899 5897 5896 5894 5892 5890 5889 5888 5887 5886 5885 5885 5884 5884 5884 5884 5883 5883 5882 5882 5882 5881 5881 5881 5881 5881 5881 5881 5881 5880 5880
5915 5914 5913 5912 5911 5910 5909 5907 5906 5904 5903 5901 5900 5898 5896 5895 5893 5891 5889 5888 5887 5886 5885 5884 5884 5884 5883 5883 5883 5882 5881 5881 5880 5879 5879 5878 5878 5878 5878 5877 5878 5877 5876
5914 5913 5912 5911 5910 5909 5909 5908 5906 5905 5903 5902 5900 5898 5897 5895 5894 5892 5890 5888 5887 5886 5885 5884 5884 5883 5882 5882 5882 5881 5880 5879 5878 5877 5877 5876 5875 5875 5874 5874 5874 5873 5872
5912 5911 5911 5910 5909 5908 5908 5907 5906 5905 5903 5902 5900 5899 5897 5896 5894 5892 5890 5889 5887 5886 5885 5884 5883 5882 5882 5881 5880 5879 5878 5878 5877 5876 5875 5874 5873 5872 5872 5871 5870 5869 5868
5909 5909 5909 5908 5908 5907 5906 5906 5905 5904 5903 5901 5900 5898 5897 5896 5894 5892 5891 5889 5888 5886 5885 5884 5883 5881 5880 5880 5879 5878 5877 5876 5875 5874 5873 5872 5871 5870 5869 5868 5867 5866 5865
5906 5905 5905 5906 5905 5905 5904 5904 5903 5902 5901 5900 5899 5898 5896 5895 5894 5892 5890 5889 5887 5886 5884 5883 5882 5881 5879 5878 5877 5876 5875 5874 5873 5872 5871 5869 5868 5867 5866 5865 5863 5863 5861
5902 5902 5901 5902 5902 5902 5902 5901 5901 5900 5900 5899 5898 5897 5895 5894 5893 5891 5889 5888 5886 5885 5883 5882 5880 5879 5878 5876 5875 5874 5873 5872 5870 5869 5868 5867 5865 5864 5862 5861 5860 5858 5857
5899 5898 5897 5898 5898 5898 5899 5899 5898 5898 5897 5896 5896 5895 5893 5892 5891 5889 5888 5886 5885 5883 5881 5880 5879 5877 5876 5874 5873 5871 5870 5869 5867 5866 5865 5863 5862 5861 5859 5858 5856 5854 5853
5894 5894 5895 5895 5895 5895 5895 5895 5895 5894 5894 5893 5893 5892 5891 5890 5888 5887 5885 5884 5882 5881 5879 5878 5876 5875 5873 5871 5870 5869 5867 5866 5864 5863 5861 5860 5859 5857 5855 5854 5852 5850 5848
5889 5889 5890 5889 5890 5890 5891 5891 5890 5890 5890 5889 5889 5888 5888 5886 5885 5884 5883 5881 5879 5878 5876 5875 5873 5871 5869 5868 5866 5865 5863 5862 5861 5859 5858 5856 5854 5853 5851 5849 5847 5846 5844
5883 5884 5885 5885 5886 5886 5886 5886 5885 5885 5885 5885 5885 5884 5883 5882 5881 5880 5879 5877 5875 5874 5872 5871 5869 5867 5866 5864 5862 5861 5859 5857 5856 5855 5853 5852 5850 5848 5846 5845 5843 5841 5839
5876 5877 5878 5879 5879 5880 5880 5880 5880 5880 5880 5879 5879 5879 5879 5877 5876 5875 5874 5872 5870 5869 5868 5866 5865 5863 5861 5859 5858 5856 5854 5853 5851 5850 5848 5847 5845 5843 5841 5839 5838 5836 5834
5869 5870 5871 5872 5873 5873 5874 5874 5874 5874 5874 5874 5873 5873 5872 5872 5870 5870 5869 5867 5865 5864 5862 5861 5859 5858 5856 5854 5853 5851 5849 5848 5846 5845 5843 5841 5839 5837 5836 5834 5832 5830 5828
5860 5861 5863 5864 5865 5866 5867 5867 5867 5867 5867 5867 5867 5866 5866 5865 5865 5864 5862 5861 5859 5858 5856 5855 5853 5852 5850 5848 5847 5845 5843 5842 5840 5839 5837 5835 5833 5831 5830 5828 5826 5824 5822
5852 5852 5854 5856 5857 5858 5858 5859 5859 5859 5860 5860 5859 5859 5859 5858 5857 5856 5855 5854 5852 5851 5850 5849 5847 5845 5844 5841 5839 5838 5837 5836 5834 5832 5830 5829 5826 5824 5823 5821 5819 5817 5815
5843 5844 5845 5846 5848 5849 5849 5850 5850 5850 5851 5851 5851 5851 5850 5849 5848 5848 5847 5846 5845 5844 5843 5841 5839 5838 5837 5835 5833 5832 5830 5828 5827 5825 5823 5821 5819 5817 5815 5814 5812 5810 5808
5833 5834 5835 5836 5838 5839 5839 5840 5840 5840 5840 5841 5841 5841 5841 5840 5839 5839 5838 5837 5836 5835 5834 5833 5831 5830 5828 5826 5825 5823 5822 5820 5819 5817 5815 5813 5811 5810 5807 5805 5803 5802 5800
5823 5824 5825 5826 5827 5828 5829 5829 5829 5829 5830 5830 5831 5830 5830 5830 5829 5828 5827 5827 5826 5825 5824 5823 5822 5820 5819 5817 5816 5814 5813 5812 5810 5809 5807 5805 5803 5801 5799 5797 5795 5793 5791
5811 5812 5813 5814 5815 5816 5817 5818 5818 5818 5819 5819 5819 5819 5819 5818 5818 5817 5816 5815 5815 5815 5814 5813 5813 5811 5810 5808 5807 5805 5803 5802 5801 5800 5799 5797 5794 5792 5790 5788 5786 5784 5782
5800 5801 5802 5803 5804 5804 5805 5806 5806 5807 5807 5807 5807 5807 5807 5807 5806 5805 5805 5804 5803 5803 5803 5802 5802 5801 5800 5798 5797 5796 5794 5793 5792 5791 5789 5787 5786 5783 5781 5779 5777 5775 5773
5788 5789 5789 5790 5791 5792 5792 5793 5793 5794 5794 5794 5794 5794 5794 5795 5794 5793 5793 5792 5791 5791 5791 5790 5789 5790 5790 5789 5787 5786 5785 5784 5782 5781 5780 5778 5776 5774 5772 5770 5768 5766 5764
5776 5777 5777 5778 5779 5779 5779 5780 5780 5780 5781 5781 5781 5781 5782 5782 5781 5781 5781 5780 5780 5780 5779 5778 5778 5778 5778 5778 5777 5775 5774 5773 5772 5770 5769 5767 5766 5764 5762 5760 5758 5756 5754
5764 5764 5764 5765 5765 5766 5766 5766 5767 5767 5767 5768 5768 5768 5769 5769 5769 5769 5769 5768 5768 5768 5768 5767 5766 5765 5766 5765 5765 5764 5763 5761 5760 5758 5758 5757 5755 5753 5752 5750 5748 5746 5743